Regional Weather Roundup
Issued by NWS Cleveland, OH

Home | Current Version | Previous Version | Text Only | Print | Product List | Glossary Off
Versions: 1 2 3 4 5 6 7 8 9 10 11 12 13 14 15 16 17 18 19 20 21 22 23 24 25 26 27 28 29 30 31 32 33 34 35 36 37 38 39 40 41 42 43 44 45 46 47 48 49 50

000
ASUS41 KCLE 281700
RWRCLE
OHIO REGIONAL WEATHER ROUNDUP
NATIONAL WEATHER SERVICE WILMINGTON, OH
100 PM EDT THU MAY 28 2015

NOTE: "FAIR" INDICATES FEW OR NO CLOUDS BELOW 12,000 FEET WITH NO
SIGNIFICANT WEATHER AND/OR OBSTRUCTIONS TO VISIBILITY.

OHZ001>008-015>018-024>027-034-035-043-044-281800-
   NORTHWEST OHIO

CITY           SKY/WX    TMP DP  RH WIND       PRES   REMARKS
DEFIANCE       SUNNY     76  60  57 E12       30.26S
FINDLAY        SUNNY     77  55  46 E8        30.25F
TOLEDO EXPRESS   N/A    N/A N/A N/A MISG        N/A
TOLEDO EXEC    SUNNY     75  56  51 E7        30.28S
LIMA           MOSUNNY   77  61  57 E12       30.24F
$$

OHZ009>014-019>023-028>033-038-089-281800-
   NORTHEAST OHIO

CITY           SKY/WX    TMP DP  RH WIND       PRES   REMARKS
CLE-HOPKINS    MOSUNNY   75  57  53 N8        30.29R
CLE-LAKEFRONT  SUNNY     66  56  70 N9        30.28R
CUY CO. ARPT   SUNNY     75  55  50 N9        30.29R
LORAIN-ELYRIA  SUNNY     75  56  51 VRB5      30.28S
ASHTABULA      SUNNY     72  55  55 SE3       30.30R
AKRON-CANTON   PTSUNNY   76  55  48 NE9       30.28R
WOOSTER        NOT AVBL
MANSFIELD      SUNNY     74  56  53 MISG      30.28S
YOUNGSTOWN     MOSUNNY   74  54  49 N8        30.29R
$$

OHZ042-051>053-060>062-070>072-077>081-281800-
  SOUTHWEST OHIO

CITY           SKY/WX    TMP DP  RH WIND       PRES   REMARKS
CINC-COVINGTON PTSUNNY   77  67  71 E3        30.23S
CINC-LUNKEN    PTSUNNY   75  66  73 CALM      30.23S
HAMILTON       PTSUNNY   77  66  68 E6        30.23F
DAYTON         NOT AVBL
WRIGHT-PAT AFB NOT AVBL
DAYTON GENERAL PTSUNNY   76  65  68 S6        30.23F
WILMINGTON     MOSUNNY   77  64  64 SE8       30.23F
$$

OHZ036-037-039>041-045>050-054>059-063>069-073>076-082>088-281800-
  CENTRAL AND SOUTHEAST OHIO

CITY           SKY/WX    TMP DP  RH WIND       PRES   REMARKS
COLUMBUS       PTSUNNY   79  64  60 SE7       30.23F
OSU AIRPORT    PTSUNNY   78  61  55 NE5       30.24F
BOLTON FIELD   PTSUNNY   77  64  65 E8        30.25S
RICKENBACK AFB NOT AVBL
NEWARK         PTSUNNY   78  62  57 VRB6      30.24F
MARION         PTSUNNY   77  59  53 VRB5      30.26F
LANCASTER      MOSUNNY   78  63  59 VRB5      30.25S
ZANESVILLE     CLOUDY    76  63  64 VRB3      30.25S
NEW PHILLY     PTSUNNY   78  62  57 CALM      30.27S
$$


USA.gov is the U.S. government's official web portal to all federal, state and local government web resources and services.